Montreal, Quebec

10:18 AM EDT on August 16, 2017 (GMT -0400)
Montreal-Pierre Elliott Trudeau Int'l Airport

Weather History for CYUL - June, 2013

Change the Weather History Date:

Tuesday, June 11, 2013

  Actual Average Record
Temperature  
Mean Temperature 58 °F -  
Max Temperature 61 °F 76 °F 91 °F (2005)
Min Temperature 55 °F 56 °F 44 °F (2000)
Degree Days  
Heating Degree Days 7    
Growing Degree Days 8 (Base 50)    
Moisture  
Dew Point 56 °F    
Average Humidity 91    
Maximum Humidity 94    
Minimum Humidity 82    
Precipitation  
Precipitation 0.67 in 0.11 in - ()
Sea Level Pressure  
Sea Level Pressure 29.76 in    
Wind  
Wind Speed 13 mph ()    
Max Wind Speed 20 mph    
Max Gust Speed 28 mph    
Visibility 9.5 miles    
Events Rain    
Averages and records for this station are not official NWS values.
T = Trace of Precipitation, MM = Missing Value Source: Averaged Metar Reports

Daily Weather History Graph

Daily Weather History Graph

Search for Another Location

Airport or City:

Trip Planner

Search our weather history database for the weather conditions in past years. The results will help you decide how hot, cold, wet, or windy it might be!

Date:

Astronomy

Jun. 11, 2013 Rise Set
Actual Time 5:06 AM EDT 8:43 PM EDT
Civil Twilight 4:28 AM EDT 9:21 PM EDT
Nautical Twilight 3:38 AM EDT 10:11 PM EDT
Astronomical Twilight 2:31 AM EDT 11:19 PM EDT
Moon 7:52 AM EDT (6/11) 10:37 PM EDT (6/11)
Length of Visible Light 16h 52m
Length of Day
15h 37m
Waxing Crescent, 8% of the Moon is Illuminated
Jun 11
Waxing Crescent
Jun 16
First Quarter
Jun 23
Full
Jun 30
Last Quarter
Jul 8
New

Hourly Weather History & Observations

Time (EDT) Temp. Dew Point Humidity Pressure Visibility Wind Dir Wind Speed Gust Speed Precip Events Conditions
12:00 AM 62.6 °F 59.0 °F 88% 29.95 in 15.0 mi SE 11.5 mph - N/A Rain Light Rain
1:00 AM 60.8 °F 59.0 °F 94% 29.92 in 15.0 mi SE 11.5 mph - N/A Rain Light Rain
2:00 AM 61 °F 57 °F 84% 29.90 in 15 mi ESE 12.7 mph - - Rain Light Rain
2:00 AM 60.8 °F 57.2 °F 88% 29.90 in 15.0 mi ESE 12.7 mph 20.7 mph N/A Rain Light Rain
3:00 AM 60.8 °F 57.2 °F 88% 29.87 in 15.0 mi East 10.4 mph - N/A Rain Light Rain
4:00 AM 60.8 °F 55.4 °F 82% 29.86 in 15.0 mi East 11.5 mph - N/A Rain Light Rain
4:29 AM 60.8 °F 55.4 °F 82% 29.86 in 15.0 mi ESE 10.4 mph - N/A   Light Drizzle
5:00 AM 59.0 °F 57.2 °F 94% 29.85 in 10.0 mi East 9.2 mph - N/A Rain Light Rain
6:00 AM 60.8 °F 57.2 °F 88% 29.82 in 10.0 mi ENE 11.5 mph - N/A Rain Light Rain
7:00 AM 59.0 °F 55.4 °F 88% 29.82 in 10.0 mi ENE 12.7 mph 20.7 mph N/A Rain Light Rain
8:00 AM 59 °F 57 °F 90% 29.80 in 10 mi NE 17.3 mph - - Rain Light Rain
8:00 AM 59.0 °F 57.2 °F 94% 29.80 in 10.0 mi ENE 17.3 mph 24.2 mph N/A Rain Light Rain
8:21 AM 59.0 °F 55.4 °F 88% 29.79 in 8.0 mi ENE 18.4 mph 25.3 mph N/A Rain Light Rain
8:44 AM 59.0 °F 55.4 °F 88% 29.78 in 7.0 mi ENE 17.3 mph 24.2 mph N/A Rain Light Rain
9:00 AM 59.0 °F 55.4 °F 88% 29.78 in 8.0 mi ENE 17.3 mph 25.3 mph N/A Rain Light Rain
10:00 AM 57.2 °F 55.4 °F 94% 29.76 in 7.0 mi ENE 18.4 mph 26.5 mph N/A Rain Light Rain
11:00 AM 57.2 °F 55.4 °F 94% 29.75 in 7.0 mi ENE 17.3 mph 27.6 mph N/A Rain Light Rain
12:00 PM 57.2 °F 55.4 °F 94% 29.73 in 7.0 mi ENE 17.3 mph 24.2 mph N/A Rain Light Rain
1:00 PM 57.2 °F 55.4 °F 94% 29.71 in 7.0 mi ENE 16.1 mph - N/A Rain Light Rain
2:00 PM 58 °F 56 °F 91% 29.70 in 7 mi NE 12.7 mph - - Rain Light Rain
2:00 PM 57.2 °F 55.4 °F 94% 29.70 in 8.0 mi NE 11.5 mph 18.4 mph N/A Rain Light Rain
2:36 PM 57.2 °F 55.4 °F 94% 29.69 in 8.0 mi NE 13.8 mph - N/A Rain Light Rain
3:00 PM 57.2 °F 55.4 °F 94% 29.69 in 6.0 mi NE 13.8 mph - N/A Rain Light Rain
4:00 PM 57.2 °F 55.4 °F 94% 29.68 in 8.0 mi NE 15.0 mph - N/A Rain Light Rain
5:00 PM 57.2 °F 55.4 °F 94% 29.66 in 5.0 mi NE 15.0 mph 21.9 mph N/A Rain Light Rain
6:00 PM 57.2 °F 55.4 °F 94% 29.65 in 6.0 mi NE 19.6 mph - N/A Rain Light Rain
7:00 PM 55.4 °F 53.6 °F 94% 29.66 in 6.0 mi NE 18.4 mph - N/A Rain Light Rain
8:00 PM 56 °F 54 °F 90% 29.68 in 9 mi NE 15.0 mph - - Rain Light Rain
8:00 PM 55.4 °F 53.6 °F 94% 29.68 in 9.0 mi NNE 16.1 mph - N/A Rain Light Rain
9:00 PM 55.4 °F 53.6 °F 94% 29.69 in 10.0 mi NE 16.1 mph 21.9 mph N/A Rain Light Rain
9:28 PM 55.4 °F 53.6 °F 94% 29.70 in 10.0 mi NE 17.3 mph - N/A Rain Light Rain
9:36 PM 55.4 °F 53.6 °F 94% 29.70 in 8.0 mi NNE 18.4 mph 26.5 mph N/A Rain Light Rain
10:00 PM 55.4 °F 53.6 °F 94% 29.70 in 8.0 mi NE 16.1 mph 24.2 mph N/A Rain Light Rain
11:00 PM 57.2 °F 55.4 °F 94% 29.70 in 10.0 mi NNE 13.8 mph - N/A Rain Light Rain